Wind_Speed
15 15 15 14 14 14 13 13 13 12 11 11 11 10 10 10 11 11 11 11 10 10 10 10 10 10 10 11 11 11 11 11 12 12 12 13 13 13 13 13 13 13 13
16 15 15 15 14 14 14 14 13 13 13 12 12 12 12 11 11 11 11 11 11 11 11 11 11 11 12 11 11 11 11 11 12 12 13 13 13 14 13 13 13 14 14
16 16 16 15 15 15 15 15 15 15 14 14 14 14 13 13 12 12 12 12 12 13 12 12 12 13 13 13 12 12 12 12 12 12 13 13 13 14 14 14 14 15 15
16 16 16 16 17 17 16 16 16 16 15 15 15 15 15 15 14 14 13 13 14 14 14 14 14 14 14 13 13 13 13 13 13 13 13 13 14 15 15 15 15 15 16
17 17 17 17 18 18 18 17 17 17 17 17 16 16 16 16 16 15 15 15 15 15 15 15 15 14 14 14 14 14 14 14 14 14 15 15 15 15 16 16 17 17 17
18 19 19 19 19 19 19 19 18 18 18 18 18 18 17 17 17 17 17 16 16 15 16 16 16 16 16 16 16 16 16 16 16 16 16 16 17 17 18 18 18 18 19
20 20 20 21 21 21 21 21 20 20 20 20 20 19 18 18 18 19 19 18 18 18 17 17 17 17 17 18 17 18 18 17 17 18 18 18 19 19 19 20 20 20 20
22 22 22 22 22 22 22 22 22 21 21 21 21 21 20 20 19 19 19 20 20 20 19 19 18 18 19 19 19 19 19 19 19 19 19 20 20 20 21 21 22 22 22
23 23 24 24 23 24 23 23 23 23 22 22 22 22 22 22 22 21 21 21 21 21 21 21 21 21 21 21 21 21 21 21 21 21 21 21 22 22 22 23 23 23 23
25 26 26 26 26 26 25 25 25 25 24 24 24 24 24 24 24 24 23 22 22 22 22 22 22 22 23 23 23 22 22 22 23 23 23 23 24 24 24 24 24 24 25
27 28 28 28 28 27 27 27 27 27 27 26 25 25 26 26 26 25 25 24 24 24 24 23 24 24 24 24 24 23 24 24 24 25 25 25 26 26 26 26 26 27 27
29 29 29 29 29 29 29 29 28 28 29 28 28 27 27 27 27 27 27 27 26 26 25 25 26 26 26 25 25 26 26 26 26 26 26 27 27 28 27 27 28 28 28
30 30 30 29 30 30 30 30 29 29 29 30 29 28 29 28 28 28 29 29 28 28 27 27 27 28 28 27 27 28 28 28 28 28 28 28 28 29 29 29 29 30 30
31 31 31 31 31 31 31 31 31 30 30 30 30 30 30 30 30 30 30 30 30 30 29 29 29 29 29 29 29 30 30 30 30 30 29 29 29 30 30 30 31 31 31
33 33 33 33 33 33 33 32 32 32 31 32 31 31 31 31 31 31 32 32 31 31 31 30 30 30 30 31 31 31 32 32 32 32 32 31 31 31 31 31 31 32 32
34 34 34 34 34 34 34 34 34 34 33 32 33 33 33 32 32 33 33 33 32 33 32 32 32 31 32 32 32 32 33 33 33 33 33 33 33 33 33 33 33 33 33
35 36 36 36 36 36 36 36 36 35 34 34 34 34 34 34 33 34 34 34 34 35 34 34 33 33 34 34 34 33 34 34 34 34 34 34 34 34 34 33 33 34 34
37 37 37 36 37 37 36 36 36 36 36 36 35 35 35 35 35 36 36 36 36 36 36 35 35 35 35 35 35 35 35 35 35 35 35 35 34 34 34 34 34 35 34
37 37 37 37 37 37 37 37 37 37 37 36 36 36 37 37 37 37 37 37 37 37 37 37 36 36 35 35 35 35 36 36 36 35 35 34 34 34 34 35 35 35 36
36 37 37 37 37 38 37 38 38 38 37 37 37 37 38 37 37 37 38 38 38 38 38 38 37 36 36 36 36 36 36 35 35 35 35 35 35 36 36 36 36 37 37
36 37 37 37 38 38 38 38 38 39 39 38 38 38 38 38 38 38 38 38 38 38 37 38 37 36 37 37 37 36 35 35 35 35 35 35 36 36 37 37 38 38 38
36 36 37 37 37 38 38 38 38 38 37 37 37 38 38 38 38 38 37 37 37 37 37 38 38 38 37 37 37 37 36 36 36 35 36 36 36 37 37 38 38 38 38
34 35 35 36 37 37 37 37 37 36 36 36 36 37 37 38 38 38 38 38 38 38 37 37 37 37 37 37 37 37 37 37 37 37 37 37 37 37 37 37 38 38 39
33 33 34 34 35 36 36 36 36 35 35 36 36 36 36 37 38 38 38 38 38 38 38 38 38 38 38 38 38 38 38 38 38 38 38 37 37 37 37 37 38 38 38
33 33 33 33 34 35 34 34 34 34 35 35 35 36 36 37 37 37 37 37 37 37 38 38 38 38 38 38 38 38 39 39 39 39 39 38 38 38 38 38 38 38 38
33 33 33 33 33 33 33 33 33 33 33 34 34 34 35 35 36 36 36 35 35 36 37 37 37 37 37 36 36 37 38 39 39 40 40 39 39 39 39 39 39 39 38
Wind_Direction
274 273 274 272 268 269 270 275 276 273 272 269 269 272 275 277 279 279 279 281 283 280 274 271 273 276 277 280 282 282 283 282 280 282 283 282 283 285 286 287 288 289 289
273 272 271 269 269 268 269 271 270 272 272 268 266 268 273 275 278 278 276 277 278 277 277 275 274 274 275 279 284 285 285 286 284 284 284 283 283 283 284 286 287 289 290
274 269 269 267 267 267 269 270 271 271 270 267 265 265 268 272 273 275 274 275 276 274 275 276 274 273 274 276 278 280 282 285 287 289 288 287 287 285 285 286 288 290 291
273 268 267 267 265 266 268 269 270 270 268 266 265 266 268 269 271 274 274 274 275 275 274 272 273 274 273 274 274 276 278 284 287 289 289 288 288 288 288 288 290 290 291
271 269 267 265 266 266 267 267 267 267 266 264 264 266 268 270 270 271 272 273 273 274 273 271 270 272 273 274 275 276 277 282 286 287 288 287 288 288 289 290 290 291 292
268 267 267 265 265 265 266 267 267 266 267 266 266 266 267 269 270 269 270 272 272 273 273 272 270 269 270 272 274 275 276 280 284 286 287 285 286 287 288 289 289 290 291
268 267 267 266 264 263 265 268 267 266 266 266 264 266 266 267 268 268 269 270 272 272 271 271 269 269 270 271 273 275 276 279 283 285 285 288 287 287 287 287 287 288 289
268 268 267 266 264 263 264 266 268 267 267 265 264 264 265 265 266 268 269 269 271 271 270 270 269 269 271 272 273 274 276 278 282 283 283 286 287 286 286 286 287 288 288
269 268 266 266 265 266 266 265 265 265 266 264 263 263 263 263 264 266 268 271 271 272 270 269 269 269 270 271 273 275 276 276 279 283 283 285 285 286 287 287 287 287 287
269 268 266 266 265 265 267 267 267 265 264 263 263 263 263 263 263 265 267 269 271 272 272 271 270 270 271 271 273 274 275 277 278 282 284 285 286 287 288 288 287 286 286
269 268 267 266 265 265 265 267 268 266 263 263 263 263 263 263 263 264 265 267 269 271 272 271 271 271 271 272 272 273 274 276 278 282 284 286 287 287 287 287 287 287 286
268 268 267 266 265 265 265 265 266 267 263 262 262 262 263 262 262 263 265 266 267 269 271 270 270 270 270 270 271 273 274 276 279 281 284 286 287 286 287 287 287 287 287
267 267 267 266 265 266 265 265 265 266 266 262 261 261 261 262 262 263 265 266 267 268 270 270 270 270 269 270 272 273 274 276 278 281 283 283 284 284 285 286 287 288 288
268 267 267 265 265 265 266 266 266 266 265 264 262 261 261 262 262 263 265 266 267 268 269 270 270 270 271 270 272 273 275 277 278 280 281 282 282 283 284 285 286 287 288
270 268 267 266 265 265 265 265 266 266 266 265 264 262 261 261 262 263 264 266 268 268 268 268 270 271 271 272 272 274 275 276 277 279 280 280 280 282 283 283 285 286 287
270 269 268 266 266 265 265 264 265 265 265 265 264 263 261 261 261 262 264 265 267 269 269 269 270 271 271 272 272 273 274 275 276 278 279 279 279 281 282 282 283 285 286
269 268 268 267 266 265 265 263 263 263 264 264 264 263 263 261 261 262 264 265 266 268 270 270 271 271 271 271 271 273 274 274 275 277 278 278 279 280 281 282 283 284 286
268 268 267 267 265 265 265 264 263 263 263 264 263 263 262 262 262 263 264 265 266 267 269 270 270 271 271 272 272 273 274 274 275 276 277 278 278 279 281 282 283 284 286
269 267 267 266 265 265 264 264 263 264 264 263 262 263 263 262 263 264 265 266 266 267 268 270 270 271 271 271 273 273 274 274 275 276 277 278 278 279 280 281 282 284 285
269 268 267 266 266 266 265 264 264 264 263 263 263 263 263 263 263 265 266 267 268 268 268 269 270 271 272 272 273 273 274 275 275 276 277 278 278 279 280 281 283 284 285
269 268 267 266 265 265 264 264 264 263 263 263 262 262 263 263 263 264 265 266 268 270 268 268 269 270 271 272 273 273 273 273 274 276 276 277 278 279 280 281 282 282 284
270 268 267 266 265 264 264 264 265 264 263 262 261 261 262 263 263 263 264 266 267 268 268 269 270 271 271 272 272 272 273 274 275 276 277 277 278 279 280 281 281 282 284
271 270 267 265 264 264 264 264 263 263 262 262 262 262 262 263 263 264 265 266 267 267 268 268 269 270 270 270 271 272 273 273 274 276 277 278 279 280 281 282 282 282 283
271 270 270 268 267 266 265 264 263 262 262 262 262 262 263 264 264 265 266 266 267 268 269 269 269 269 269 269 270 271 272 273 273 274 276 278 279 280 281 283 283 284 284
271 270 269 269 269 268 267 265 263 262 262 263 262 262 263 264 265 266 267 267 268 269 269 269 270 270 270 271 271 271 271 272 272 274 276 277 279 280 281 282 283 283 284
271 270 269 270 269 268 266 264 262 262 262 262 262 263 263 264 264 266 267 267 268 269 270 270 270 271 272 273 272 272 272 272 272 273 275 276 277 279 280 282 282 283 284
Height
5835 5835 5835 5835 5835 5835 5835 5834 5834 5834 5833 5833 5833 5833 5833 5832 5832 5831 5831 5830 5830 5829 5829 5829 5828 5828 5827 5827 5826 5825 5825 5824 5823 5823 5821 5820 5820 5819 5818 5817 5816 5815 5814
5831 5831 5831 5831 5831 5830 5830 5830 5830 5830 5830 5830 5830 5830 5830 5829 5829 5828 5828 5827 5827 5826 5826 5826 5825 5825 5824 5824 5823 5822 5821 5821 5820 5819 5818 5817 5816 5815 5814 5813 5812 5811 5810
5827 5826 5826 5826 5826 5826 5826 5826 5826 5826 5826 5826 5826 5826 5826 5826 5825 5825 5824 5824 5823 5823 5822 5822 5822 5821 5821 5820 5820 5819 5818 5817 5816 5815 5814 5813 5812 5811 5810 5809 5808 5807 5805
5822 5822 5822 5822 5822 5822 5822 5821 5821 5821 5821 5822 5822 5822 5822 5821 5821 5821 5820 5820 5819 5819 5819 5818 5818 5818 5817 5816 5816 5815 5814 5814 5812 5811 5810 5809 5808 5807 5806 5805 5804 5802 5801
5817 5817 5816 5817 5817 5817 5816 5816 5816 5816 5816 5817 5817 5817 5817 5817 5817 5816 5816 5816 5815 5815 5814 5814 5814 5813 5813 5812 5812 5811 5810 5809 5808 5807 5806 5805 5804 5803 5801 5800 5799 5798 5796
5812 5811 5811 5811 5811 5811 5811 5811 5811 5811 5811 5811 5812 5812 5812 5812 5812 5811 5811 5811 5811 5810 5810 5810 5809 5809 5808 5808 5808 5807 5806 5805 5804 5803 5802 5800 5799 5798 5797 5795 5794 5793 5791
5806 5806 5805 5805 5805 5805 5805 5805 5805 5805 5805 5806 5806 5806 5806 5806 5806 5806 5806 5806 5806 5805 5805 5805 5804 5804 5803 5803 5803 5802 5801 5800 5799 5798 5797 5795 5794 5793 5791 5790 5789 5787 5786
5799 5799 5798 5798 5798 5798 5798 5799 5798 5799 5799 5799 5799 5800 5800 5800 5800 5800 5800 5800 5800 5800 5799 5799 5799 5799 5798 5798 5797 5797 5796 5795 5794 5793 5791 5790 5788 5787 5785 5784 5782 5781 5779
5792 5792 5792 5791 5791 5791 5791 5791 5791 5791 5792 5792 5792 5793 5794 5794 5794 5794 5794 5794 5794 5794 5793 5793 5793 5793 5792 5792 5791 5791 5790 5789 5788 5787 5785 5784 5782 5780 5779 5777 5776 5774 5772
5784 5784 5783 5783 5783 5783 5784 5784 5784 5784 5784 5785 5785 5786 5786 5787 5787 5787 5788 5788 5788 5787 5787 5787 5787 5786 5786 5785 5784 5784 5784 5783 5781 5780 5779 5777 5775 5774 5772 5770 5769 5767 5765
5775 5775 5775 5774 5774 5775 5775 5775 5775 5775 5776 5776 5777 5778 5778 5779 5779 5779 5780 5780 5780 5780 5780 5779 5779 5779 5779 5778 5777 5777 5776 5775 5774 5773 5772 5770 5768 5766 5765 5763 5761 5760 5758
5766 5765 5765 5765 5765 5765 5766 5766 5766 5766 5767 5767 5768 5769 5770 5770 5771 5771 5772 5772 5772 5773 5772 5772 5772 5771 5771 5770 5770 5769 5769 5768 5767 5766 5764 5762 5761 5759 5757 5755 5753 5751 5749
5756 5756 5756 5756 5756 5756 5756 5756 5757 5757 5757 5758 5759 5760 5761 5761 5762 5763 5763 5764 5764 5764 5764 5764 5763 5763 5763 5762 5762 5761 5760 5760 5759 5758 5756 5754 5752 5750 5749 5747 5745 5743 5741
5746 5746 5746 5746 5747 5747 5747 5747 5747 5747 5748 5748 5749 5750 5751 5752 5753 5753 5754 5754 5755 5755 5755 5755 5754 5754 5754 5754 5753 5752 5751 5751 5750 5749 5747 5745 5743 5742 5740 5738 5736 5734 5732
5736 5736 5736 5736 5736 5736 5737 5737 5737 5737 5737 5738 5739 5740 5741 5742 5743 5743 5744 5744 5744 5745 5745 5745 5745 5745 5745 5744 5744 5743 5742 5741 5740 5739 5738 5736 5734 5732 5731 5729 5726 5724 5723
5724 5725 5725 5725 5725 5725 5725 5726 5726 5727 5727 5727 5728 5729 5731 5732 5732 5733 5733 5734 5734 5734 5734 5735 5735 5735 5734 5734 5733 5733 5732 5731 5730 5728 5727 5725 5724 5722 5721 5718 5716 5714 5713
5713 5713 5713 5713 5714 5714 5714 5714 5715 5716 5716 5717 5717 5718 5719 5721 5721 5722 5722 5723 5723 5723 5724 5724 5724 5724 5723 5723 5722 5722 5721 5720 5719 5718 5716 5715 5713 5712 5710 5708 5706 5704 5702
5701 5701 5701 5701 5702 5702 5702 5703 5703 5704 5705 5705 5706 5707 5708 5709 5710 5710 5711 5711 5712 5712 5712 5713 5713 5712 5712 5711 5711 5710 5710 5709 5708 5706 5705 5703 5702 5700 5699 5697 5695 5693 5691
5688 5688 5689 5689 5689 5690 5690 5691 5691 5692 5693 5694 5694 5695 5696 5696 5697 5698 5698 5699 5700 5700 5701 5701 5700 5700 5700 5699 5699 5698 5698 5697 5696 5695 5694 5692 5690 5689 5687 5686 5684 5682 5680
5676 5676 5676 5677 5677 5677 5678 5678 5679 5680 5680 5681 5682 5683 5684 5684 5685 5686 5686 5687 5688 5688 5688 5688 5688 5688 5688 5687 5687 5686 5686 5685 5684 5683 5682 5680 5679 5677 5676 5674 5672 5670 5668
5664 5664 5664 5664 5665 5665 5665 5666 5666 5667 5668 5669 5670 5670 5671 5672 5673 5674 5674 5675 5675 5675 5675 5676 5676 5676 5675 5675 5674 5674 5673 5673 5672 5671 5670 5669 5667 5665 5664 5662 5660 5658 5656
5652 5652 5652 5652 5653 5653 5653 5654 5654 5655 5655 5656 5657 5658 5658 5659 5660 5662 5663 5663 5663 5663 5663 5663 5663 5663 5663 5662 5662 5661 5661 5661 5660 5659 5658 5657 5655 5653 5651 5650 5648 5646 5644
5640 5640 5640 5640 5640 5641 5641 5641 5642 5642 5643 5644 5645 5646 5646 5647 5648 5649 5650 5650 5651 5651 5651 5651 5651 5651 5650 5649 5649 5649 5648 5648 5647 5646 5646 5644 5643 5641 5640 5638 5636 5634 5632
5628 5628 5628 5628 5628 5629 5629 5630 5630 5631 5631 5632 5633 5634 5635 5636 5636 5637 5637 5637 5637 5638 5637 5637 5637 5637 5637 5636 5636 5636 5635 5635 5634 5634 5633 5632 5630 5629 5627 5626 5624 5622 5620
5617 5617 5617 5617 5617 5617 5618 5618 5619 5619 5620 5621 5621 5622 5623 5623 5624 5624 5625 5625 5625 5624 5624 5624 5624 5623 5623 5623 5622 5622 5622 5621 5621 5620 5620 5619 5618 5617 5615 5613 5612 5610 5608
5606 5606 5606 5606 5606 5606 5606 5607 5608 5608 5609 5609 5610 5610 5611 5611 5611 5612 5612 5612 5612 5612 5612 5611 5611 5610 5610 5610 5609 5609 5608 5608 5607 5607 5606 5606 5605 5604 5603 5601 5599 5597 5595